Location: ?????
(32.7281°N, 34.9563°E)
Time: 18:52:10
(UTC+00:00)

Meteor 2-15 Rocket - Pass Details

Date: 29 October 2020
Orbit: 938 x 957 km, 82.5° (Epoch: 01 December)

Event Time Altitude Azimuth Distance (km) Brightness Sun altitude
Rises 15:45:29 0° 173° (S) 3,619 7.5 -11.9°
Reaches altitude 10° 15:48:00 10° 169° (S) 2,677 6.8 -12.4°
Maximum altitude 15:53:59 57° 92° (E) 1,115 4.5 -13.6°
Drops below altitude 10° 15:59:59 10° 16° (NNE) 2,687 6.6 -14.9°
Sets 16:02:31 0° 12° (NNE) 3,634 7.3 -15.4°
